Orbital Elements at Epoch 2459200.5 (2020-Dec-17.0) TDB
Reference: JPL 22 (heliocentric ecliptic J2000)
Element | Value | Uncertainty (1-sigma) | Units |
e | .1112824626990189 | 3.9536e-08 | |
a | 2.373873767114671 | 9.4099e-09 | au |
q | 2.109703248173554 | 9.2099e-08 | au |
i | 6.566505620722246 | 3.2076e-06 | deg |
node | 152.1696543479668 | 3.5994e-05 | deg |
peri | 75.98373153327552 | 4.0501e-05 | deg |
M | 70.66378911616742 | 1.6e-05 | deg |
tp | 2458938.271869170005 (2020-Mar-29.77186917) | 5.9795e-05 | TDB |
period | 1335.933556345332 3.66 | 7.9433e-06 2.175e-08 | d yr |
n | .2694744796925677 | 1.6023e-09 | deg/d |
Q | 2.638044286055789 | 1.0457e-08 | au |
|
| | Orbit Determination Parameters
Additional Information
|